Simultaneous Nadir Overpasses (SNOs) Predictions

Prediction of SNOs between GOES-15 and TERRA Satellite Orbit:

Table of predicted SNOs for the next 14.0 days since TLE Epoch: 7/4/2020
Index Date Time (GOES-15) GOES-15 Lat,Lon TERRA Lat,Lon Distance(km) Time Diff (sec)
1 07/04/2020 18:50:38 0.03,-128.20 -0.68,-124.84 382.80 80
2 07/05/2020 07:12:02 -0.03,-128.22 -0.44,-130.02 205.49 80
3 07/07/2020 06:57:11 -0.03,-128.26 0.22,-127.07 134.89 80
4 07/07/2020 19:18:26 0.02,-128.25 0.84,-132.24 452.10 80
5 07/09/2020 06:45:00 -0.02,-128.30 0.89,-124.12 475.17 80
6 07/09/2020 19:06:14 0.02,-128.29 0.24,-129.27 111.69 80
7 07/11/2020 18:56:44 0.02,-128.33 -0.43,-126.32 228.55 80
8 07/12/2020 07:18:07 -0.01,-128.36 -0.69,-131.51 358.74 80
9 07/14/2020 07:05:55 -0.01,-128.39 -0.08,-128.55 19.31 80
10 07/16/2020 06:51:04 -0.02,-128.41 0.59,-125.60 320.11 80
11 07/16/2020 19:12:19 0.01,-128.39 0.53,-130.75 268.22 80
